User: anonymous   Login
Location: Gro�wechsungen
(51.4926°N, 10.6901°E)
Time: 20:53:55
(UTC+00:00)
Language:

Cosmos 1833 Rocket - Orbit

View from above orbital plane
View from above orbital plane
View from above satellite
View from above satellite

Ground track
Ground track

The orbit data is extracted from the following two-line orbital elements,

1 17590U 87027B   20332.14683060 -.00000162  00000-0 -56873-4 0  9998
2 17590  71.0044  18.7854 0005730 209.0590 151.0215 14.16793157742432
Epoch (UTC): 27 November 2020 03:31:26
Eccentricity: 0.0005730
inclination: 71.0044°
perigee height: 832 km
apogee height: 840 km
right ascension of ascending node: 18.7854°
argument of perigee: 209.0590°
revolutions per day: 14.16793157
mean anomaly at epoch: 151.0215°
orbit number at epoch: 74243

The dashed part of the orbit path shows where the satellite is in the earth's shadow,  

DLR